Погода Верхотурье

Погода Верхотурье : погода сейчас, прогноз погоды и архив. Всё, что Вы хотите узнать о погоде Верхотурье!

Хотите узнать прогноз погоды Верхотурье? Тогда Вам сюда: Погода Верхотурье

Поиск расширенной информации на нашем сайте:

Другие новости

Новости СМИ2

Главная страница сайта

Новости сайта

02.10.2013

Напоминаем, что на нашем новом сайте вы можете получить высокодетализированные прогнозы погоды по пунктам России, СНГ и мира (включающие важные для авиации метеовеличины, такие как направление и скорость ветра, видимость, явления погоды, количество и форма облачности, нижняя и верхняя граница облачности), а также ознакомиться с разнообразными материалами по авиационной метеорологии и подборкой полезных ссылок на эту тему.

Сайт Метеоцентр.Азия посвящён разработке технологий оптимизации авиаметеорологического обслуживания, включая проектирование и перспективное создание нескольких автоматизированных авиаметеорологических систем:
- система выпуска высокодетальных прогностических карт явлений погоды для нижнего воздушного пространства по России и ближнему зарубежью;
- система верификации прогнозов TAF (выпускаемых синоптиками официальных АМСГ РФ и ближнего зарубежья) и AUTOTAF (выпускаемых сайтом Метеоцентр.Азия) - выявление ошибок, онлайн-сопоставление с фактической погодой METAR, автоматическое внесение коррективов в прогнозы при резком отклонении фактической погоды от прогноза, подсчёт оправдываемости прогнозов по элементам и в целом;
- система обработки, анализа и отображения авиаметеорологической информации для применения провайдерами метеорологической информации.


Погода Верхотурье - сегодня

Время (UTC), дата Ветер
(°,м/с) 
Видим.   Явления Облачность Т
(°С)
Тd
(°С)
f(%) Тe
(°С)
Pmin
(гПа)
dP
(гПа)
Po
(мм)
O2
(г/м3)
Тmin Tmax R s Состояние
почвы
03 15.01.17 200 (Ю) 20000 м    8/3 600 м средняя 
[Sc|Ac und]
-10.6 -12.7 85 -12  1030.4  0.1  760  320  -13.2      52  равномерный
сухой снег
100% 
06 15.01.17 230 (ЮЗ) 20000 м    6/1 600 м средняя, верхняя 
[Sc|Ac trans|Ci fib]
-8.6 -11.5 79 -10  1030.7  0.4  761  318           
09 15.01.17 230 (ЮЗ) 20000 м    8/0 средняя, верхняя 
[Ac trans|Ci sp]
-5.8 -10.2 71 -8  1030.7  0.2  761  314           
12 15.01.17 210 (ЮЗ) 20000 м    8/0 верхняя 
[Ci sp]
-7.3 -11.2 74 -9  1031.7  0.9  761  316           
15 15.01.17 220 (ЮЗ) 20000 м    3/0 верхняя 
[Ci fib]
-8.9 -11.8 79 -12  1031.8  761  318    -5.6       
18 15.01.17 210 (ЮЗ) 20000 м    3/0 верхняя 
[Ci fib]
-11.8 -13.7 86 -14  1032.4  0.4  762  322           
21 15.01.17 220 (ЮЗ) 20000 м    3/0 верхняя 
[Ci fib]
-12.4 -14.9 82 -14  1032.6  0.2  762  323           
00 16.01.17 220 (ЮЗ) 20000 м    1/0 верхняя 
[Ci fib]
-12.3 -15.2 79 -14  1032.7  0.1  762  323           
03 16.01.17 230 (ЮЗ) 20000 м    1/0 верхняя 
[Ci fib]
-13.4 -16.3 79 -16  1032.9  0.1  762  324  -13.4      52  равномерный
сухой снег
100% 
06 16.01.17 220 (ЮЗ) 20000 м    1/0 верхняя 
[Ci fib]
-13.3 -16.7 76 -15  1033.8  0.9  763  324  -14.2         
09 16.01.17 220 (ЮЗ) 20000 м    ясно 
-8.8 -13.4 69 -10  1033.7  0.3  763  319           
12 16.01.17 220 (ЮЗ) 20000 м    ясно 
-8.6 -13.2 69 -10  1034.3  0.6  763  319           
15 16.01.17 210 (ЮЗ) 20000 м    ясно 
-10.8 -13.6 80 -13  1034.7  0.3  764  322    -7.9       
18 16.01.17 220 (ЮЗ) 20000 м    ясно 
-11.6 -14.5 79 -14  1034.8  764  323           
21 16.01.17 200 (Ю) 20000 м    6/0 средняя 
[Ac und]
-10.9 -15.3 70 -13  1035.2  0.4  764  322           
00 17.01.17 210 (ЮЗ) 20000 м    ясно 
-13.6 -17.1 75 -14  1035.8  0.4  764  325           
03 17.01.17 190 (Ю) 20000 м    ясно 
-12.6 -17.5 67 -15  1035.8  0.1  764  324  -13.6      52  равномерный
сухой снег
100% 
06 17.01.17 220 (ЮЗ) 20000 м    8/0 верхняя 
[Ci]
-10.1 -16.6 59 -12  1036.1  0.4  764  321           
09 17.01.17 220 (ЮЗ) 20000 м    8/0 верхняя 
[Ci]
-6 -13.5 55 -7  1035.6  -0.2  764  316           
12 17.01.17 220 (ЮЗ) 20000 м    8/0 верхняя 
[Ci sp]
-7.1 -13.9 58 -7  1035.8  0.1  764  318           
15 17.01.17 220 (ЮЗ) 20000 м    6/0 верхняя 
[Ci sp]
-11.5 -14.4 79 -11  1036.1  764  323    -4.9       
18 17.01.17 тихо ()   20000 м    4/0 верхняя 
[Ci fib]
-19.1 -21.4 82 -19  1036  -0.6  764  333           
21 17.01.17 тихо ()   20000 м    3/0 верхняя 
[Ci fib]
-21.2 -23.7 80 -21  1035.3  -0.9  763  335           
00 18.01.17 тихо ()   20000 м    1/0 верхняя 
[Ci fib]
-22.3 -25 79 -22  1034.7  -0.7  763  337           
03 18.01.17 тихо ()   20000 м    3/0 верхняя 
[Ci sp]
-22.9 -25.7 78 -23  1033.2  -1.5  762  337  -23.3      51  равномерный
сухой снег
100% 
Время (UTC), дата Ветер
(°,м/с) 
Видим.   Явления Облачность Т
(°С)
Тd
(°С)
f(%) Тe
(°С)
Pmin
(гПа)
dP
(гПа)
Po
(мм)
O2
(г/м3)
Тmin Tmax R s Состояние
почвы

Для получения пояснительной информации подведите курсор к названию столбца.

ПОГОДА Верхотурье - архив

Всё, что Вы хотите узнать о погоде Верхотурье - удобно и подробно!

Выберите нужную дату (начиная с 1 января 2015* года) и нажмите кнопку "Найти".
Будут отображены архивные сводки погоды по пункту Верхотурье, начиная с указанной даты.


Отображать данные в формате CSV (для использования в таблицах Excel)


Внимание! Наш архив погоды предназначен исключительно для личного некоммерческого использования в познавательных целях. Если Вам необходимы официальные справки о состоянии погоды (для производственных, юридических, коммерческих и т.п. целей), обращайтесь в органы Росгидромета.

*Примечание: данная дата относится к архиву по метеостанциям СССР (Россия, СНГ, Балтия).
Архив по метеостанциям Зарубежной Европы и Азии (кроме Китая) хранится 10 дней, по другим регионам земного шара (Китай, Африка, Америка, Австралия, Океания) - 1 день.

Верхотурье - район местоположения метеостанции


Название, широта, долгота, высота метеостанции:
Верхотурье 58.9°ш. 60.8°д. 125 м над ур. моря [Российская Федерация]

Дополнительная информация

В oтличие oт бoльшинства пoгoдных сайтoв мы публикуем пoдрoбную метеoинфoрмацию в детальнoм прoфессиoнальнoм фoрмате.

Характеристики температуры и влажнoсти вoздуха измеряются на высoте 2 м в тени вдали oт зданий и деревьев.
Скoрoсть ветра измеряется на высoте 10 м (на урoвне рoста челoвека скoрoсть ветра ниже в 1.5-2 раза). Если метеoстанция нахoдится в гoрoде или в лесу, тo скoрoсть ветра занижена на 2-4 м/с пo сравнению с oткрытым местoм. Скoрoсть ветра над акватoриями крупных рек и oзёр, а также на вершинах хoлмoв на 2-5 м/с выше, чем в oбычных услoвиях.
Атмoсфернoе давление в разных тoчках местнoсти мoжет значительнo oтличаться oт давления на метеoстанции, в зависимoсти oт услoвий рельефа (при пoдъёме на 10 м давление пoнижается примернo на 1 мм рт.ст.).